Tracking 30995 objects as of 7-Jul-2025
HD Live streaming from Space Station
objects crossing your sky now

THORAD AGENA D DEB

Track THORAD AGENA D DEB now!
10-day predictions


NORAD ID: 4432
Int'l Code: 1969-082ED
Perigee: 760.0 km
Apogee: 838.2 km
Inclination: 70.0 °
Period: 100.7 minutes
Semi major axis: 7170 km
RCS: 0.039 m2 (small)
Launch date: September 30, 1969
Source: United States (US)
Launch site: AIR FORCE WESTERN TEST RANGE (AFWTR)

Note: This is SATELLITE DEBRIS
Your satellite tracking list
CZ-3B DEB
Track 1 satellite(s)




NASA's NSSDC Master Catalog

Two Line Element Set (TLE):
1 04432U 69082ED  25187.59812653  .00000373  00000-0  16456-3 0  9998
2 04432  69.9778   1.3305 0054546 251.0208 108.5000 14.29939292885673
Source of the keplerian elements: AFSPC